N98AB KSAN-KLAX

Flight info

Callsign N98AB
Flight time 0h 47m
Altitude 4000
Route FALCC1 SLI DCT
Aircraft C172/L-SFG/C

Departure

Time 2026-04-25 02:32
Airport San Diego International Airport (KSAN)

Arrival

Time 2026-04-25 03:20
Airport Los Angeles International Airport (KLAX)
Time Latitude Longitude Altitude Speed Heading
2026-04-25 02:07 32.73371 -117.17889 21 ft 0 kts 289°
2026-04-25 02:27 32.73376 -117.17915 21 ft 7 kts 261°
2026-04-25 02:28 32.73340 -117.17947 21 ft 7 kts 203°
2026-04-25 02:28 32.73294 -117.17971 21 ft 9 kts 204°
2026-04-25 02:28 32.73226 -117.17955 21 ft 13 kts 106°
2026-04-25 02:28 32.73196 -117.17835 21 ft 14 kts 105°
2026-04-25 02:29 32.73169 -117.17727 21 ft 12 kts 105°
2026-04-25 02:29 32.73147 -117.17630 21 ft 11 kts 107°
2026-04-25 02:29 32.73112 -117.17570 21 ft 3 kts 144°
2026-04-25 02:29 32.73109 -117.17567 21 ft 0 kts 144°
2026-04-25 02:30 32.73059 -117.17535 21 ft 14 kts 177°
2026-04-25 02:31 32.73051 -117.17716 21 ft 42 kts 292°
2026-04-25 02:31 32.73155 -117.18146 66 ft 57 kts 285°
2026-04-25 02:31 32.73274 -117.18580 171 ft 52 kts 285°
2026-04-25 02:31 32.73449 -117.18913 307 ft 49 kts 311°
2026-04-25 02:32 32.73707 -117.19188 451 ft 51 kts 319°
2026-04-25 02:32 32.73998 -117.19456 613 ft 53 kts 321°
2026-04-25 02:32 32.74337 -117.19709 727 ft 67 kts 324°
2026-04-25 02:32 32.74778 -117.20042 855 ft 83 kts 324°
2026-04-25 02:33 32.75291 -117.20439 1017 ft 93 kts 328°
2026-04-25 02:33 32.75859 -117.20890 1183 ft 100 kts 322°
2026-04-25 02:33 32.76439 -117.21357 1367 ft 103 kts 322°
2026-04-25 02:33 32.76965 -117.21779 1536 ft 105 kts 322°
2026-04-25 02:34 32.77556 -117.22253 1727 ft 105 kts 322°
2026-04-25 02:34 32.78169 -117.22742 1924 ft 105 kts 322°
2026-04-25 02:34 32.78775 -117.23225 2116 ft 106 kts 322°
2026-04-25 02:34 32.79385 -117.23708 2308 ft 106 kts 322°
2026-04-25 02:35 32.80001 -117.24195 2498 ft 106 kts 322°
2026-04-25 02:35 32.80615 -117.24678 2685 ft 106 kts 322°
2026-04-25 02:35 32.81291 -117.25047 2869 ft 108 kts 338°
2026-04-25 02:35 32.81995 -117.25309 3101 ft 104 kts 339°
2026-04-25 02:36 32.82660 -117.25551 3343 ft 98 kts 339°
2026-04-25 02:36 32.83303 -117.25789 3590 ft 93 kts 338°
2026-04-25 02:36 32.83894 -117.26011 3829 ft 87 kts 338°
2026-04-25 02:36 32.84448 -117.26221 4069 ft 80 kts 337°
2026-04-25 02:37 32.84939 -117.26404 4299 ft 69 kts 338°
2026-04-25 02:37 32.85399 -117.26576 4445 ft 70 kts 337°
2026-04-25 02:37 32.85881 -117.26761 4579 ft 75 kts 337°
2026-04-25 02:37 32.86385 -117.26957 4712 ft 80 kts 337°
2026-04-25 02:38 32.86929 -117.27171 4866 ft 82 kts 334°
2026-04-25 02:38 32.87470 -117.27401 5023 ft 84 kts 337°
2026-04-25 02:38 32.88051 -117.27634 5133 ft 93 kts 336°
2026-04-25 02:38 32.88678 -117.27899 5254 ft 100 kts 338°
2026-04-25 02:39 32.89366 -117.28163 5366 ft 107 kts 339°
2026-04-25 02:39 32.90090 -117.28439 5479 ft 112 kts 339°
2026-04-25 02:39 32.90852 -117.28729 5610 ft 114 kts 339°
2026-04-25 02:39 32.91605 -117.29018 5743 ft 116 kts 339°
2026-04-25 02:40 32.92379 -117.29316 5881 ft 116 kts 340°
2026-04-25 02:40 32.93162 -117.29620 5963 ft 122 kts 340°
2026-04-25 02:40 32.93996 -117.29944 5973 ft 131 kts 340°
2026-04-25 02:40 32.94887 -117.30290 5972 ft 137 kts 340°
2026-04-25 02:41 32.95807 -117.30648 5971 ft 140 kts 340°
2026-04-25 02:41 32.96739 -117.31010 5969 ft 142 kts 340°
2026-04-25 02:41 32.97681 -117.31378 5969 ft 143 kts 340°
2026-04-25 02:41 32.98628 -117.31748 5968 ft 144 kts 340°
2026-04-25 02:42 32.99588 -117.32124 5967 ft 144 kts 340°
2026-04-25 02:42 33.00536 -117.32494 5967 ft 145 kts 340°
2026-04-25 02:42 33.01487 -117.32867 5967 ft 145 kts 340°
2026-04-25 02:42 33.02453 -117.33246 5966 ft 145 kts 340°
2026-04-25 02:43 33.03405 -117.33620 5966 ft 145 kts 340°
2026-04-25 02:43 33.04347 -117.33987 5963 ft 138 kts 341°
2026-04-25 02:43 33.05243 -117.34337 5963 ft 134 kts 341°
2026-04-25 02:43 33.06148 -117.34693 5967 ft 138 kts 340°
2026-04-25 02:44 33.07073 -117.35059 5967 ft 141 kts 341°
2026-04-25 02:44 33.08012 -117.35429 5966 ft 143 kts 341°
2026-04-25 02:44 33.08958 -117.35800 5966 ft 144 kts 341°
2026-04-25 02:44 33.09900 -117.36171 5966 ft 144 kts 341°
2026-04-25 02:45 33.10837 -117.36540 5962 ft 144 kts 341°
2026-04-25 02:45 33.11797 -117.36917 5961 ft 144 kts 341°
2026-04-25 02:45 33.12740 -117.37287 5961 ft 144 kts 341°
2026-04-25 02:45 33.13674 -117.37653 5961 ft 143 kts 340°
2026-04-25 02:46 33.14619 -117.38024 5961 ft 143 kts 340°
2026-04-25 02:46 33.15563 -117.38390 5961 ft 142 kts 340°
2026-04-25 02:46 33.16490 -117.38750 5961 ft 141 kts 339°
2026-04-25 02:46 33.17422 -117.39115 5961 ft 140 kts 339°
2026-04-25 02:47 33.18341 -117.39477 5961 ft 139 kts 338°
2026-04-25 02:47 33.19264 -117.39841 5961 ft 138 kts 338°
2026-04-25 02:47 33.20174 -117.40203 5970 ft 134 kts 344°
2026-04-25 02:47 33.21032 -117.40556 5962 ft 127 kts 345°
2026-04-25 02:48 33.21856 -117.40881 5962 ft 124 kts 345°
2026-04-25 02:48 33.22657 -117.41249 5957 ft 125 kts 332°
2026-04-25 02:48 33.23336 -117.41922 5962 ft 125 kts 323°
2026-04-25 02:48 33.23972 -117.42627 5963 ft 125 kts 322°
2026-04-25 02:49 33.24606 -117.43343 5963 ft 126 kts 322°
2026-04-25 02:49 33.25247 -117.44070 5963 ft 126 kts 321°
2026-04-25 02:49 33.25877 -117.44786 5963 ft 127 kts 321°
2026-04-25 02:49 33.26512 -117.45512 5964 ft 127 kts 321°
2026-04-25 02:50 33.27159 -117.46250 5964 ft 128 kts 321°
2026-04-25 02:50 33.27805 -117.46989 5964 ft 129 kts 321°
2026-04-25 02:50 33.28447 -117.47725 5963 ft 127 kts 321°
2026-04-25 02:50 33.29097 -117.48470 5964 ft 128 kts 321°
2026-04-25 02:51 33.29740 -117.49209 5964 ft 129 kts 321°
2026-04-25 02:51 33.30392 -117.49957 5964 ft 129 kts 321°
2026-04-25 02:51 33.31044 -117.50704 5964 ft 129 kts 321°
2026-04-25 02:51 33.31691 -117.51448 5964 ft 129 kts 321°
2026-04-25 02:52 33.32343 -117.52197 5964 ft 129 kts 321°
2026-04-25 02:52 33.32996 -117.52947 5964 ft 129 kts 321°
2026-04-25 02:52 33.33655 -117.53705 5964 ft 129 kts 321°
2026-04-25 02:52 33.34293 -117.54439 5999 ft 127 kts 321°
2026-04-25 02:53 33.34933 -117.55176 6009 ft 128 kts 321°
2026-04-25 02:53 33.35577 -117.55916 6010 ft 128 kts 321°
2026-04-25 02:53 33.36227 -117.56663 6010 ft 129 kts 321°
2026-04-25 02:53 33.36873 -117.57406 6010 ft 129 kts 321°
2026-04-25 02:54 33.37535 -117.58156 6011 ft 131 kts 314°
2026-04-25 02:54 33.38198 -117.58913 6018 ft 135 kts 312°
2026-04-25 02:54 33.38878 -117.59705 6018 ft 138 kts 312°
2026-04-25 02:54 33.39572 -117.60509 6018 ft 140 kts 312°
2026-04-25 02:55 33.40214 -117.61239 6003 ft 111 kts 312°
2026-04-25 02:55 33.40730 -117.61822 6005 ft 95 kts 310°
2026-04-25 02:55 33.41222 -117.62396 6019 ft 103 kts 310°
2026-04-25 02:55 33.41752 -117.63020 6020 ft 111 kts 311°
2026-04-25 02:56 33.42331 -117.63695 6018 ft 118 kts 311°
2026-04-25 02:56 33.42927 -117.64384 6017 ft 122 kts 311°
2026-04-25 02:56 33.43553 -117.65105 6015 ft 124 kts 311°
2026-04-25 02:56 33.44175 -117.65822 6014 ft 126 kts 311°
2026-04-25 02:57 33.44823 -117.66571 6015 ft 131 kts 311°
2026-04-25 02:57 33.45483 -117.67334 6013 ft 135 kts 311°
2026-04-25 02:57 33.46176 -117.68134 6011 ft 137 kts 312°
2026-04-25 02:57 33.46859 -117.68922 6010 ft 138 kts 312°
2026-04-25 02:58 33.47558 -117.69728 6009 ft 139 kts 312°
2026-04-25 02:58 33.48256 -117.70533 6007 ft 139 kts 312°
2026-04-25 02:58 33.48957 -117.71342 6007 ft 140 kts 312°
2026-04-25 02:58 33.49662 -117.72156 6006 ft 140 kts 312°
2026-04-25 02:59 33.50333 -117.72925 6136 ft 112 kts 312°
2026-04-25 02:59 33.51021 -117.73727 5684 ft 150 kts 312°
2026-04-25 02:59 33.51701 -117.74506 5962 ft 129 kts 312°
2026-04-25 02:59 33.52352 -117.75260 5999 ft 132 kts 311°
2026-04-25 03:00 33.53026 -117.76044 6003 ft 136 kts 312°
2026-04-25 03:00 33.53708 -117.76835 6003 ft 139 kts 312°
2026-04-25 03:00 33.54409 -117.77647 6002 ft 140 kts 312°
2026-04-25 03:00 33.55107 -117.78455 6001 ft 141 kts 312°
2026-04-25 03:01 33.55816 -117.79275 6001 ft 141 kts 312°
2026-04-25 03:01 33.56523 -117.80093 6000 ft 142 kts 312°
2026-04-25 03:01 33.57234 -117.80917 6000 ft 142 kts 312°
2026-04-25 03:01 33.57941 -117.81736 6000 ft 142 kts 312°
2026-04-25 03:02 33.58664 -117.82573 6000 ft 142 kts 312°
2026-04-25 03:02 33.59376 -117.83399 6000 ft 142 kts 312°
2026-04-25 03:02 33.60091 -117.84228 6000 ft 142 kts 312°
2026-04-25 03:02 33.60797 -117.85046 5999 ft 142 kts 312°
2026-04-25 03:03 33.61514 -117.85877 5997 ft 142 kts 312°
2026-04-25 03:03 33.62227 -117.86706 5996 ft 142 kts 312°
2026-04-25 03:03 33.62946 -117.87540 5994 ft 142 kts 312°
2026-04-25 03:03 33.63662 -117.88371 5933 ft 144 kts 313°
2026-04-25 03:04 33.64372 -117.89191 5809 ft 142 kts 312°
2026-04-25 03:04 33.65082 -117.90013 5684 ft 141 kts 312°
2026-04-25 03:04 33.65791 -117.90836 5560 ft 144 kts 312°
2026-04-25 03:05 33.67286 -117.92584 5318 ft 153 kts 312°
2026-04-25 03:05 33.68057 -117.93486 5195 ft 154 kts 312°
2026-04-25 03:05 33.68825 -117.94382 5071 ft 153 kts 312°
2026-04-25 03:05 33.69566 -117.95239 4942 ft 144 kts 312°
2026-04-25 03:06 33.70275 -117.96063 4814 ft 139 kts 311°
2026-04-25 03:06 33.70960 -117.96861 4689 ft 137 kts 311°
2026-04-25 03:06 33.71646 -117.97659 4563 ft 135 kts 311°
2026-04-25 03:06 33.72322 -117.98447 4438 ft 134 kts 311°
2026-04-25 03:07 33.72987 -117.99223 4314 ft 133 kts 311°
2026-04-25 03:07 33.73651 -117.99997 4190 ft 132 kts 311°
2026-04-25 03:07 33.74316 -118.00774 4069 ft 138 kts 311°
2026-04-25 03:07 33.75024 -118.01608 3990 ft 145 kts 311°
2026-04-25 03:08 33.75748 -118.02451 3977 ft 145 kts 311°
2026-04-25 03:08 33.76470 -118.03291 3974 ft 144 kts 311°
2026-04-25 03:08 33.77193 -118.04134 3973 ft 144 kts 311°
2026-04-25 03:08 33.77908 -118.04967 3972 ft 144 kts 312°
2026-04-25 03:09 33.78628 -118.05800 3972 ft 144 kts 312°
2026-04-25 03:09 33.79353 -118.06640 3972 ft 144 kts 312°
2026-04-25 03:09 33.80072 -118.07477 3972 ft 144 kts 312°
2026-04-25 03:09 33.80795 -118.08322 3972 ft 144 kts 312°
2026-04-25 03:10 33.81519 -118.09171 3974 ft 144 kts 312°
2026-04-25 03:10 33.82239 -118.10014 3976 ft 144 kts 312°
2026-04-25 03:10 33.82951 -118.10848 3978 ft 144 kts 312°
2026-04-25 03:10 33.83676 -118.11697 3979 ft 143 kts 312°
2026-04-25 03:11 33.84391 -118.12532 3981 ft 143 kts 312°
2026-04-25 03:11 33.85110 -118.13371 3983 ft 142 kts 312°
2026-04-25 03:11 33.85821 -118.14198 3985 ft 142 kts 312°
2026-04-25 03:11 33.86530 -118.15021 3987 ft 142 kts 312°
2026-04-25 03:12 33.87238 -118.15842 3988 ft 141 kts 312°
2026-04-25 03:12 33.87716 -118.16396 3989 ft 141 kts 311°
2026-04-25 03:12 33.89152 -118.18121 3981 ft 140 kts 309°
2026-04-25 03:13 33.89813 -118.18970 3973 ft 141 kts 308°
2026-04-25 03:13 33.90474 -118.19852 3857 ft 140 kts 307°
2026-04-25 03:13 33.91119 -118.20712 3788 ft 138 kts 308°
2026-04-25 03:13 33.91787 -118.21553 3653 ft 138 kts 309°
2026-04-25 03:14 33.92458 -118.22367 3510 ft 136 kts 310°
2026-04-25 03:14 33.93129 -118.23174 3355 ft 136 kts 311°
2026-04-25 03:14 33.93801 -118.23967 3212 ft 135 kts 310°
2026-04-25 03:14 33.94420 -118.24817 3062 ft 133 kts 304°
2026-04-25 03:15 33.94927 -118.25727 2909 ft 130 kts 291°
2026-04-25 03:15 33.95121 -118.26779 2691 ft 129 kts 269°
2026-04-25 03:15 33.95061 -118.27834 2456 ft 124 kts 261°
2026-04-25 03:15 33.94927 -118.28851 2189 ft 121 kts 257°
2026-04-25 03:16 33.94756 -118.29794 1996 ft 109 kts 257°
2026-04-25 03:16 33.94603 -118.30627 1911 ft 96 kts 259°
2026-04-25 03:16 33.94495 -118.31396 1786 ft 91 kts 259°
2026-04-25 03:16 33.94387 -118.32140 1632 ft 88 kts 261°
2026-04-25 03:17 33.94297 -118.32861 1479 ft 85 kts 262°
2026-04-25 03:17 33.94212 -118.33529 1351 ft 76 kts 262°
2026-04-25 03:17 33.94130 -118.34135 1204 ft 68 kts 262°
2026-04-25 03:17 33.94064 -118.34673 987 ft 64 kts 274°
2026-04-25 03:18 33.94002 -118.35203 757 ft 61 kts 272°
2026-04-25 03:18 33.93956 -118.35672 540 ft 54 kts 265°
2026-04-25 03:18 33.93930 -118.36129 403 ft 56 kts 267°
2026-04-25 03:18 33.93902 -118.36610 343 ft 59 kts 265°
2026-04-25 03:19 33.93853 -118.37087 287 ft 57 kts 264°
2026-04-25 03:19 33.93793 -118.37588 276 ft 62 kts 264°
2026-04-25 03:19 33.93743 -118.38103 194 ft 59 kts 265°
2026-04-25 03:19 33.93698 -118.38592 108 ft 57 kts 264°
2026-04-25 03:20 33.93664 -118.38993 99 ft 38 kts 263°
2026-04-25 03:20 33.93635 -118.39278 102 ft 34 kts 261°
2026-04-25 03:20 33.93540 -118.39372 103 ft 7 kts 178°
2026-04-25 03:20 33.93535 -118.39373 103 ft 0 kts 190°
2026-04-25 03:22 33.93510 -118.39351 103 ft 14 kts 110°
2026-04-25 03:22 33.93512 -118.39223 102 ft 14 kts 79°
2026-04-25 03:22 33.93527 -118.39092 102 ft 18 kts 87°
2026-04-25 03:22 33.93546 -118.38914 100 ft 25 kts 76°
2026-04-25 03:23 33.93559 -118.38699 99 ft 23 kts 74°
2026-04-25 03:23 33.93587 -118.38525 99 ft 21 kts 83°
2026-04-25 03:23 33.93608 -118.38357 97 ft 16 kts 72°
2026-04-25 03:23 33.93619 -118.38314 96 ft 4 kts 70°
2026-04-25 03:24 33.93641 -118.38285 96 ft 0 kts 25°